Home > Weather > Kumamoto > Past weeks

Flag for Japan Weather for the Past 2 Weeks in Kumamoto, Japan

Now
64 °F

Light rain. Overcast.


Feels Like: 64 °F
Forecast: 60 / 70 °F
Wind: 2 mph from Southwest

Location: Kumamoto

Current Time: May 6, 2016 at 3:50:23 AM

Latest Report: May 6, 2016 at 3:00 AM


Visibility: 9 mi

Pressure: 29.93 "Hg

Humidity: 77%

Dew Point: 56 °F

Location of KumamotoLocation

Historic Weather in Kumamoto — Graph

°F

Kumamoto Temperature Yesterday

Maximum temperature yesterday: 78 °F (at 2:00 PM)
Minimum temperature yesterday: 56 °F (at 5:00 AM)
Average temperature yesterday: 68 °F

High & Low Weather Summary for the Past Weeks

 TemperatureHumidityPressure
High79 °F (May 2, 4:00 PM)100% (Apr 21, 11:00 AM)30.10 "Hg (Apr 21, 11:00 AM)
Low49 °F (Apr 30, 6:00 AM)29% (May 5, 2:00 PM)29.50 "Hg (Apr 28, 4:00 AM)
Average64 °F76%29.89 "Hg
* Reported Apr 21 2:00 AM — May 6 2:00 AM, Kumamoto, Weather by CustomWeather, © 2016

Note: Actual official high and low records may vary slightly from our data, if they occured in-between our weather recording intervals... More about our weather records

Advertising

Kumamoto Weather History for the Previous 24 Hours

Scroll right to see more
 ConditionsComfort  
Time TempWeatherWind HumidityBarometerVisibility
2:00 AM
Fri, May 6
66 °FMild.3 mph76%29.93 "HgN/A
1:00 AM67 °FMild.3 mph67%29.96 "HgN/A
12:00 AM67 °FMild.2 mph69%30.01 "HgN/A
11:00 PM
Thu, May 5
68 °FMild.2 mph66%30.03 "HgN/A
10:00 PM69 °FMild.3 mph56%30.06 "HgN/A
9:00 PM69 °FOvercast.1 mph49%30.04 "Hg16 mi
8:00 PM70 °FMild.2 mph47%30.01 "HgN/A
7:00 PM72 °FMild.2 mph35%30.01 "HgN/A
6:00 PM73 °FOvercast.9 mph35%30.02 "Hg19 mi
5:00 PM75 °FMild.7 mph32%29.99 "HgN/A
4:00 PM77 °FPleasantly warm.7 mph34%30.00 "HgN/A
3:00 PM78 °FOvercast.7 mph35%30.00 "Hg19 mi
2:00 PM78 °FPleasantly warm.5 mph29%30.02 "HgN/A
1:00 PM77 °FMild.7 mph46%30.03 "HgN/A
12:00 PM75 °FOvercast.3 mph45%30.06 "Hg16 mi
11:00 AM74 °FMild.3 mph54%30.08 "HgN/A
10:00 AM71 °FMild.5 mph56%30.09 "HgN/A
9:00 AM68 °FOvercast.1 mph66%30.10 "Hg9 mi
8:00 AM64 °FMild.2 mph77%30.10 "HgN/A
7:00 AM59 °FCool.3 mph86%30.07 "HgN/A
6:00 AM57 °FPartly sunny.2 mph91%30.05 "Hg9 mi
5:00 AM56 °FCool.2 mph93%30.03 "HgN/A
4:00 AM59 °FCool.3 mph87%30.02 "HgN/A
3:00 AM60 °FPassing clouds.2 mph85%30.01 "Hg9 mi
Weather by CustomWeather, © 2016

See weather overviewHow to use our weather pages